This demonstration page uses our WeatherBlox Daily Observations layout. Learn more.

Left ArrowRight Arrow

38.88101, -77.10428

Hourly Observations for August 30, 2020

Temp ( °F °C ) Dew Point ( °F °C ) Humidity (%) Winds ( mph kmh ) Pressure ( in mb ) Visibility ( mi km ) Precip ( " mm )
12:52 am 00:52 Mostly Clear 76 24.4 61 16.1 60 60 NW 13 20 29.71 1006 10 16.0934 0 0
1:52 am 01:52 Mostly Clear 75 23.9 60 15.6 60 60 WNW 6 9 29.72 1007 10 16.0934 0 0
2:52 am 02:52 Mostly Clear 73 22.8 60 15.6 64 64 W 7 11 29.72 1007 10 16.0934 0 0
3:52 am 03:52 Mostly Clear 72 22.2 60 15.6 66 66 W 6 9 29.72 1006 10 16.0934 0 0
4:52 am 04:52 Mostly Clear 70 21.1 61 16.1 73 73 W 5 7 29.72 1007 10 16.0934 0 0
5:52 am 05:52 Partly Cloudy 69 20.6 60 15.6 73 73 W 6 9 29.73 1007 10 16.0934 0 0
6:52 am 06:52 Mostly Cloudy 68 20 60 15.6 76 76 W 5 7 29.76 1008 10 16.0934 0 0
7:52 am 07:52 Mostly Cloudy 73 22.8 60 15.6 64 64 NW 6 9 29.8 1009 10 16.0934 0 0
8:52 am 08:52 Mostly Cloudy 75 23.9 61 16.1 62 62 NNW 13 20 29.83 1010 10 16.0934 0 0
9:52 am 09:52 Partly Cloudy 76 24.4 60 15.6 58 58 NW 12 19 29.84 1011 10 16.0934 0 0
10:52 am 10:52 Partly Cloudy 78 25.6 59 15 52 52 N 9 15 29.85 1011 10 16.0934 0 0
11:52 am 11:52 Partly Cloudy 79 26.1 57 13.9 47 47 NW 15 24 29.86 1011 10 16.0934 0 0
12:52 pm 12:52 Partly Cloudy 80 26.7 58 14.4 47 47 NNW 14 22 29.85 1011 10 16.0934 0 0
1:52 pm 13:52 Mostly Cloudy 81 27.2 60 15.6 49 49 N 14 22 29.85 1011 10 16.0934 0 0
2:52 pm 14:52 Mostly Cloudy 82 27.8 59 15 46 46 NNW 13 20 29.85 1011 10 16.0934 0 0
3:52 pm 15:52 Mostly Cloudy 82 27.8 58 14.4 44 44 N 12 19 29.85 1011 9 14.48406 0 0
4:52 pm 16:52 Mostly Cloudy 83 28.3 59 15 44 44 NNW 12 19 29.85 1011 10 16.0934 0 0
5:52 pm 17:52 Partly Cloudy 81 27.2 57 13.9 44 44 NNW 9 15 29.85 1011 10 16.0934 0 0
6:52 pm 18:52 Partly Cloudy 79 26.1 57 13.9 47 47 N 8 13 29.86 1011 10 16.0934 0 0
7:52 pm 19:52 Partly Cloudy 78 25.6 55 12.8 45 45 NNW 5 7 29.88 1012 10 16.0934 0 0
8:52 pm 20:52 Partly Cloudy 78 25.6 55 12.8 45 45 Calm 29.9 1013 10 16.0934 0 0
9:52 pm 21:52 Partly Cloudy 75 23.9 61 16.1 62 62 Calm 29.91 1013 10 16.0934 0 0
10:52 pm 22:52 Mostly Cloudy 75 23.9 59 15 58 58 Calm 29.93 1014 10 16.0934 0 0
11:52 pm 23:52 Cloudy 73 22.8 62 16.7 69 69 ENE 7 11 29.95 1014 10 16.0934 0 0

Powered by AerisWeather